Change the Weather History Date:

Saturday, February 4, 2012

  Actual Average Record
Temperature  
Mean Temperature 32 °F -  
Max Temperature 32 °F 27 °F 54 °F (1954)
Min Temperature 31 °F 9 °F -17 °F (1989)
Degree Days  
Heating Degree Days 34    
Moisture  
Dew Point 32 °F    
Average Humidity 100    
Maximum Humidity 100    
Minimum Humidity 98    
Precipitation  
Precipitation 0.03 in - - ()
Sea Level Pressure  
Sea Level Pressure 30.25 in    
Wind  
Wind Speed 12 mph (NNE)    
Max Wind Speed 20 mph    
Max Gust Speed 25 mph    
Visibility 3 miles    
Events Rain , Snow    
Averages and records for this station are not official NWS values.
T = Trace of Precipitation, MM = Missing Value Source: NWS Daily Summary

Daily Weather History Graph

Daily Weather History Graph

Search for Another Location

Airport or City:

Trip Planner

Search our weather history database for the weather conditions in past years. The results will help you decide how hot, cold, wet, or windy it might be!

Date:

Astronomy

Feb. 04, 2012 Rise Set
Actual Time 7:26 AM CST 5:35 PM CST
Civil Twilight 6:57 AM CST 6:04 PM CST
Nautical Twilight 6:23 AM CST 6:37 PM CST
Astronomical Twilight 5:51 AM CST 7:10 PM CST
Moon 2:31 PM CST (2/4) 4:54 AM CST (2/4)
Length of Visible Light 11h 07m
Length of Day
10h 08m
Waxing Gibbous, 89% of the Moon is Illuminated
Feb 4
Waxing Gibbous
Feb 7
Full
Feb 14
Last Quarter
Feb 21
New
Feb 29
First Quarter

Hourly Weather History & Observations

Time (CST) Temp. Windchill Dew Point Humidity Pressure Visibility Wind Dir Wind Speed Gust Speed Precip Events Conditions
12:15 AM 32.2 °F 23.8 °F 32.2 °F 100% 30.28 in 2.5 mi NE 10.4 mph - N/A   Overcast
12:35 AM 32.2 °F 23.2 °F 32.2 °F 100% 30.28 in 2.5 mi NE 11.5 mph 16.1 mph N/A   Overcast
12:55 AM 32.2 °F 22.7 °F 32.2 °F 100% 30.26 in 2.0 mi NE 12.7 mph 20.7 mph N/A   Overcast
1:15 AM 32.2 °F 22.3 °F 32.2 °F 100% 30.26 in 2.0 mi NE 13.8 mph 21.9 mph N/A   Overcast
1:35 AM 32.0 °F 21.2 °F 32.0 °F 100% 30.26 in 2.5 mi NE 16.1 mph 21.9 mph N/A   Overcast
1:55 AM 32.2 °F 23.2 °F 32.2 °F 100% 30.26 in 2.5 mi NE 11.5 mph - N/A   Overcast
2:15 AM 32.0 °F 21.6 °F 32.0 °F 100% 30.24 in 2.5 mi NE 15.0 mph 20.7 mph N/A   Overcast
2:35 AM 32.0 °F 20.1 °F 32.0 °F 100% 30.21 in 2.5 mi NE 19.6 mph 25.3 mph N/A   Overcast
2:55 AM 32.0 °F 20.5 °F 32.0 °F 100% 30.19 in 2.5 mi NE 18.4 mph 24.2 mph N/A   Overcast
3:15 AM 32.0 °F 21.2 °F 32.0 °F 100% 30.19 in 3.0 mi NE 16.1 mph 24.2 mph N/A   Overcast
3:35 AM 32.0 °F 22.5 °F 32.0 °F 100% 30.19 in 4.0 mi NE 12.7 mph 24.2 mph N/A   Overcast
3:55 AM 32.0 °F 22.5 °F 32.0 °F 100% 30.19 in 2.5 mi NE 12.7 mph - N/A   Light Drizzle
4:15 AM 32.0 °F 21.6 °F 32.0 °F 100% 30.18 in 2.5 mi ENE 15.0 mph - N/A Rain Light Rain
4:35 AM 32.0 °F 21.2 °F 32.0 °F 100% 30.19 in 2.0 mi NE 16.1 mph - N/A   Overcast
4:55 AM 32.0 °F 22.5 °F 32.0 °F 100% 30.20 in 2.0 mi ENE 12.7 mph 19.6 mph N/A   Overcast
5:15 AM 32.0 °F 22.1 °F 32.0 °F 100% 30.20 in 1.8 mi ENE 13.8 mph 17.3 mph N/A   Overcast
5:35 AM 32.0 °F 21.6 °F 32.0 °F 100% 30.19 in 1.5 mi ENE 15.0 mph 19.6 mph N/A   Overcast
5:55 AM 32.0 °F 22.1 °F 32.0 °F 100% 30.19 in 1.5 mi NE 13.8 mph - N/A   Overcast
6:15 AM 32.0 °F 21.6 °F 32.0 °F 100% 30.19 in 1.5 mi NE 15.0 mph 20.7 mph N/A   Overcast
6:55 AM 32.0 °F 22.1 °F 32.0 °F 100% 30.21 in 1.8 mi NE 13.8 mph - N/A   Overcast
7:15 AM 32.0 °F 22.1 °F 32.0 °F 100% 30.22 in 1.5 mi NNE 13.8 mph 18.4 mph N/A Snow Light Snow
7:35 AM 32.0 °F 22.1 °F 32.0 °F 100% 30.22 in 1.0 mi NNE 13.8 mph 17.3 mph N/A Snow Light Snow
7:55 AM 32.0 °F 23.0 °F 32.0 °F 100% 30.23 in 0.5 mi NNE 11.5 mph - N/A Snow Light Snow
8:15 AM 32.0 °F 23.6 °F 32.0 °F 100% 30.24 in 0.8 mi NNE 10.4 mph - 0.02 in Snow Light Snow
8:55 AM 32.0 °F 22.1 °F 32.0 °F 100% 30.25 in 0.5 mi North 13.8 mph 20.7 mph 0.03 in Snow Snow
9:15 AM 32.0 °F 21.2 °F 32.0 °F 100% 30.26 in 0.5 mi NNE 16.1 mph - N/A Snow Snow
9:35 AM 32.0 °F 22.1 °F 32.0 °F 100% 30.26 in 0.5 mi North 13.8 mph - N/A Snow Light Snow
9:55 AM 31.8 °F 21.0 °F 31.8 °F 100% 30.26 in 0.5 mi North 16.1 mph - N/A Snow Snow
10:15 AM 32.0 °F 20.8 °F 32.0 °F 100% 30.26 in 1.0 mi North 17.3 mph 20.7 mph N/A Snow Light Snow
10:35 AM 32.0 °F 22.1 °F 32.0 °F 100% 30.27 in 1.0 mi North 13.8 mph - N/A Snow Light Snow
10:55 AM 32.0 °F 21.6 °F 32.0 °F 100% 30.28 in 0.8 mi NNE 15.0 mph - N/A Snow Light Snow
11:15 AM 32.0 °F 21.6 °F 32.0 °F 100% 30.28 in 0.5 mi NNE 15.0 mph 19.6 mph N/A Snow Snow
11:35 AM 32.0 °F 22.5 °F 32.0 °F 100% 30.28 in 0.2 mi NNE 12.7 mph - N/A Snow Snow
11:55 AM 32.0 °F 22.5 °F 32.0 °F 100% 30.27 in 0.5 mi NNE 12.7 mph - N/A Snow Snow
12:15 PM 32.0 °F 23.0 °F 32.0 °F 100% 30.27 in 0.8 mi NNE 11.5 mph - N/A Snow Light Snow
12:35 PM 32.0 °F 23.6 °F 32.0 °F 100% 30.26 in 1.5 mi North 10.4 mph - N/A Snow Light Snow
12:55 PM 32.0 °F 23.0 °F 32.0 °F 100% 30.26 in 1.2 mi NNE 11.5 mph - N/A Snow Light Snow
1:15 PM 32.0 °F 24.8 °F 32.0 °F 100% 30.26 in 0.8 mi North 8.1 mph - N/A Snow Light Snow
1:35 PM 31.6 °F 23.7 °F 31.6 °F 100% 30.25 in 1.0 mi North 9.2 mph - N/A Snow Light Snow
1:55 PM 31.5 °F 22.9 °F 31.5 °F 100% 30.25 in 1.0 mi North 10.4 mph - N/A Snow Light Snow
2:15 PM 31.8 °F 23.9 °F 31.8 °F 100% 30.25 in 1.2 mi North 9.2 mph - N/A Snow Light Snow
2:35 PM 31.8 °F 25.4 °F 31.8 °F 100% 30.26 in 1.5 mi NNE 6.9 mph - N/A Snow Light Snow
2:55 PM 32.0 °F 24.8 °F 32.0 °F 100% 30.26 in 4.0 mi North 8.1 mph - N/A   Overcast
3:15 PM 32.0 °F 24.8 °F 32.0 °F 100% 30.27 in 5.0 mi NNE 8.1 mph - N/A   Overcast
3:35 PM 32.0 °F 27.5 °F 32.0 °F 100% 30.27 in 5.0 mi NNE 4.6 mph - N/A   Overcast
3:55 PM 32.5 °F 29.3 °F 32.4 °F 99% 30.28 in 7.0 mi North 3.5 mph - N/A   Overcast
4:35 PM 32.4 °F 27.9 °F 32.2 °F 99% 30.28 in 10.0 mi NW 4.6 mph - N/A   Overcast
4:55 PM 32.0 °F 27.5 °F 32.0 °F 100% 30.28 in 7.0 mi NNW 4.6 mph - N/A   Overcast
5:15 PM 32.9 °F 26.7 °F 32.9 °F 100% 30.28 in 5.0 mi NNW 6.9 mph - N/A   Overcast
5:35 PM 32.9 °F 26.7 °F 32.9 °F 100% 30.27 in 5.0 mi NNW 6.9 mph - N/A   Overcast
5:55 PM 32.9 °F 25.3 °F 32.9 °F 100% 30.28 in 7.0 mi North 9.2 mph - N/A   Overcast
6:15 PM 32.9 °F 24.7 °F 32.9 °F 100% 30.28 in 7.0 mi North 10.4 mph - N/A   Overcast
6:35 PM 32.7 °F 25.7 °F 32.7 °F 100% 30.28 in 7.0 mi North 8.1 mph - N/A   Overcast
6:55 PM 32.4 °F 24.6 °F 32.4 °F 100% 30.29 in 7.0 mi North 9.2 mph - N/A   Overcast
7:15 PM 32.0 °F 23.6 °F 32.0 °F 100% 30.29 in 7.0 mi North 10.4 mph - N/A   Overcast
7:35 PM 32.0 °F 24.2 °F 32.0 °F 100% 30.29 in 10.0 mi North 9.2 mph - N/A   Overcast
7:55 PM 32.0 °F 24.2 °F 32.0 °F 100% 30.30 in 10.0 mi North 9.2 mph - N/A   Overcast
8:15 PM 32.0 °F 23.6 °F 32.0 °F 100% 30.30 in 10.0 mi North 10.4 mph - N/A   Overcast
8:35 PM 32.0 °F 23.6 °F 32.0 °F 100% 30.30 in 10.0 mi North 10.4 mph - N/A   Overcast
8:55 PM 31.1 °F 23.1 °F 31.1 °F 100% 30.30 in 10.0 mi North 9.2 mph - N/A   Scattered Clouds
9:15 PM 30.7 °F 22.0 °F 30.7 °F 100% 30.31 in 10.0 mi NNW 10.4 mph - N/A   Clear
9:35 PM 30.2 °F 21.9 °F 30.2 °F 100% 30.31 in 10.0 mi NNW 9.2 mph - N/A   Scattered Clouds
9:55 PM 30.0 °F 21.7 °F 30.0 °F 100% 30.31 in 7.0 mi NNW 9.2 mph - N/A   Mostly Cloudy
10:15 PM 29.3 °F 21.5 °F 29.3 °F 100% 30.31 in 7.0 mi NNW 8.1 mph - N/A   Mostly Cloudy
10:35 PM 28.9 °F 20.4 °F 28.9 °F 100% 30.31 in 7.0 mi NNW 9.2 mph - N/A   Scattered Clouds
10:55 PM 29.1 °F 20.6 °F 29.1 °F 100% 30.31 in 10.0 mi NNW 9.2 mph - N/A   Clear
11:15 PM 28.9 °F 19.8 °F 28.9 °F 100% 30.32 in 10.0 mi North 10.4 mph - N/A   Clear
11:35 PM 28.2 °F 19.5 °F 28.2 °F 100% 30.32 in 7.0 mi North 9.2 mph - N/A   Clear
11:55 PM 26.6 °F 19.1 °F 26.6 °F 100% 30.32 in 7.0 mi NW 6.9 mph - N/A   Clear